OPS 4682 DEB, 38402

Orbit data source: Space-Track

OPS 4682 DEB, 38402 is space debris in LEO originally from a launch on Sat, 03 Apr 1965 UTC launched from the Air Force Western Test Range (AFWTR). Debris objects in space refer to the collection of defunct objects orbiting the Earth. Examples of debris include non-operational satellites, rocket bodies, and fragments generated from explosions, collisions, or faulty payload assembly.

Loading next visibility...
Identifier
38402, 1965-027DF
Orbit
LEO
Country
Flag of USUS
Related business
Manufacturer
Unknown
Mission
Spacecraft
Bus & Motor
Unknown
Mass
Unknown
Launch date (UTC)
1965-04-03 (61 years ago)
Launch vehicle
Unknown
Launch site
Air Force Western Test Range (AFWTR)
Object type
Payload
Rocket body
Debris
Shape & HBR
Unknown shape, 0.1 m
Radar Cross Section
Small (<0.1 m²)

Expand to show TLE details & history
Last TLE update: 1 day ago

TLE from 1 day ago
0 OPS 4682 DEB
1 38402U 65027DF  26207.41434705  .00000250  00000-0  87793-3 0  9996
2 38402  90.2399   5.9273 0028618 157.9233 202.3125 12.93913142592165
Epoch: 2026-07-26T09:56Z
TLE epoch observation values (Epoch: 2026-07-26T09:56:39.585Z)
Latitude
-0.00001°
Longitude
-87.35025°
Altitude
1,309.207 km
Speed
7.193 km/s
True Right ascension
00h 23m 42s
True Declination
0° 00' 00"
Sunlit
Object was in daylight at epoch
Visualization orbit readout
Latitude
Unknown
Longitude
Unknown
Altitude
Unknown
Speed
Unknown
Apparent Right ascension
Unknown
Apparent Declination
Unknown
Sunlit
N/A
Visualization observer readout
Local Sidereal Time
09:16:53
Azimuth
Unknown
Elevation
Unknown
Doppler factor
Unknown
Orbital elements
Apogee altitude
1,305.09 km
Perigee altitude
1,261.24 km
Semi-major axis
7,661.302 km
Eccentricity
0.00286
Inclination
90.2399°
RAAN
5.9273°
Arg. of periapsis
157.9233°
True anomaly
202.18841°
Mean anomaly
202.3125°
Eccentric anomaly
202.25041°
Mean motion
3.2366 °/min
Orbital period
111.23 mins
BSTAR
0.00087793
Loading maneuver chart data...
Computing Atmospheric mass density...
Loading historical data...
Loading historical data...
Loading historical data...
Loading historical data...
Loading historical data...
Loading historical data...
Loading historical data...

Documentation

Showing up to 5 results
|